Regional Weather Roundup
Issued by NWS

Home | Current Version | Previous Version | Text Only | Print | Product List | Glossary Off
Versions: 1 2 3 4 5 6 7 8 9 10 11 12 13 14 15 16 17 18 19 20 21 22 23 24 25 26 27 28 29 30 31 32 33 34 35 36 37 38 39 40 41 42 43 44 45 46 47 48 49 50

000
ASUS43 KMKX 111421
RWRWI

WISCONSIN REGIONAL WEATHER ROUNDUP
NATIONAL WEATHER SERVICE MILWAUKEE/SULLIVAN WI
800 AM CST THU FEB 11 2016

NOTE: "FAIR" INDICATES FEW OR NO CLOUDS BELOW 12,000 FEET WITH NO
SIGNIFICANT WEATHER AND/OR OBSTRUCTIONS TO VISIBILITY.

WIZ001-002-006>008-014>016-023>028-111500-
NORTHWEST WISCONSIN

CITY           SKY/WX    TMP DP  RH WIND       PRES   REMARKS
SUPERIOR ARPT  CLOUDY    -9 -15  77 SW3       30.32S
ASHLAND        CLOUDY    -4  -7  87 SW7       30.28S WCI -18
HAYWARD        CLOUDY   -20 -26  74 CALM      30.26S
SIREN          CLOUDY   -16 -22  74 CALM      30.31R
CUMBERLAND     CLOUDY   -13 -17  84 CALM      30.26S
RICE LAKE      CLOUDY   -13 -18  79 CALM      30.30S
CHETEK         CLOUDY   -12 -16  83 CALM      30.30R
LADYSMITH      CLOUDY   -17 -22  75 CALM      30.27S
EAU CLAIRE     CLOUDY    -7 -11  83 SW3       30.31R
MENOMONIE      CLOUDY    -3  -9  77 W3        30.32S
NEW RICHMOND   CLOUDY    -8 -13  79 CALM      30.31S
OSCEOLA        CLOUDY    -7 -11  80 CALM      30.35S
$$

WIZ003>005-009-010-017-018-111500-
NORTH CENTRAL WISCONSIN

CITY           SKY/WX    TMP DP  RH WIND       PRES   REMARKS
MANITOWISH WTR CLOUDY     1  -3  85 W5        30.17S WCI  -9
ARBOR VITAE    CLEAR      1  -3  83 NW3       30.16F
WOODRUFF       CLEAR      1  -3  83 NW3       30.16F
RHINELANDER    CLEAR     -5  -9  83 W7        30.16S WCI -19
EAGLE RIVER    MOCLDY    -3  -7  82 W5        30.15R WCI -13
LAND O LAKES   CLOUDY     4   1  86 W3        30.15R
PHILLIPS       CLOUDY    -9 -13  83 CALM      30.21S FOG
TOMAHAWK       PTCLDY    -8 -11  84 CALM      30.20R
MEDFORD        CLOUDY   -11 -15  82 CALM      30.21R
MERRILL        CLOUDY    -7 -11  81 W3        30.22S
$$

WIZ029-030-035-036-043>047-111500-
CENTRAL WISCONSIN

CITY           SKY/WX    TMP DP  RH WIND       PRES   REMARKS
WAUSAU         CLOUDY    -3  -8  79 NW9       30.22R WCI -19
MOSINEE        CLEAR     -6  -8  92 CALM      30.24R
MARSHFIELD     CLOUDY    -8 -13  78 CALM      30.23R
STEVENS POINT  CLOUDY   -10 -14  82 CALM      30.26R
WAUPACA        CLEAR      4  -3  71 W5        30.28S WCI  -5
WAUTOMA        CLOUDY    -2  -8  75 CALM      30.30R
WISC RAPIDS    CLOUDY    -5 -10  79 CALM      30.29R
CAMP DOUGLAS   CLEAR     -8  -9  92 W5        30.29S WCI -19
$$

WIZ011>013-019>022-031-037>040-048>050-111500-
NORTHEAST WISCONSIN

CITY           SKY/WX    TMP DP  RH WIND       PRES   REMARKS
ANTIGO         PTCLDY    -3  -7  86 NW9       30.17R WCI -20
SHAWANO        CLEAR      3  -4  72 W7        30.27R WCI  -9
OCONTO         CLEAR      1  -4  79 W5        30.25S WCI  -9
STURGEON BAY   CLEAR      3  -4  72 W5        30.25R WCI  -6
GREEN BAY      CLEAR     -2  -7  79 W8        30.26R WCI -17
MANITOWOC      FLURRIES   4  -3  73 NW12      30.26R WCI -12
APPLETON       CLEAR     -2  -9  71 W12       30.23S WCI -20
CLINTONVILLE   CLEAR      0  -6  78 W7        30.26S WCI -13
OSHKOSH        CLEAR     -1  -7  75 W7        30.27R WCI -14
$$

WIZ032>034-041-042-053>061-111500-
SOUTHWEST WISCONSIN

CITY           SKY/WX    TMP DP  RH WIND       PRES   REMARKS
LA CROSSE      CLOUDY    -2  -6  83 CALM      30.35R
SPARTA         CLOUDY   -15 -21  74 CALM      30.33R
VIROQUA        CLOUDY    -1  -5  82 SW6       30.27S WCI -13
BOSCOBEL       PTCLDY    -4  -8  83 CALM      30.36R
PRAIRIE DU CHI PTCLDY    -1  -8  74 CALM      30.36R
PLATTEVILLE    CLOUDY     2  -3  77 CALM      30.31R
$$

WIZ056-057-062-063-064-067-068-111500-
SOUTH CENTRAL WISCONSIN

CITY           SKY/WX    TMP DP  RH WIND       PRES   REMARKS
REEDSBURG      PTCLDY    -5 -10  81 CALM      30.30S
BARABOO/DELLS  PTCLDY    -7 -12  79 CALM      30.29S
LONE ROCK      PTCLDY    -5  -9  83 CALM      30.35R
MINERAL POINT  CLOUDY     3  -4  72 CALM      30.29R
MADISON        CLEAR      3  -4  72 CALM      30.29S
MIDDLETON      CLEAR      5  -2  73 W6        30.31R WCI  -6
WATERTOWN      CLEAR      4  -3  74 W5        30.29R WCI  -6
MONROE         CLEAR      7   0  72 N7        30.28R WCI  -5
JANESVILLE     CLEAR      7   0  72 NW8       30.30R WCI  -6
$$

WIZ051-052-058>065-066-070>072-111500-
SOUTHEAST WISCONSIN

CITY           SKY/WX    TMP DP  RH WIND       PRES   REMARKS
MILWAUKEE      PTCLDY     7  -3  64 NW8       30.27S WCI  -6
WAUKESHA       CLEAR      0  -6  78 W6        30.27R WCI -12
MILWAUKEE/TIMM CLEAR      7  -4  61 NW7       30.28R WCI  -5
RACINE         SUNNY      5  -4  66 W8        30.29R WCI  -8
BURLINGTON     CLEAR      5  -4  67 NW7       30.29R WCI  -7
KENOSHA        SUNNY      6  -3  66 NW7       30.28R WCI  -6
FOND DU LAC    CLEAR      2  -6  69 NW6       30.27S WCI  -9
SHEBOYGAN      CLEAR      2  -5  72 NW7       30.26R WCI -11
WEST BEND      CLEAR      3  -4  72 CALM      30.25S
JUNEAU         CLEAR      1  -5  75 NW6       30.28R WCI -10
$$

LSZ147-162-111500-
LAKE SUPERIOR

STATION/POSITION TIME  TEMP    WIND        PRES    WAVE
                       AIR SEA DIR/SP/G            HT/PER
                 (UTC) (F)     (DEG/KT/KT) (MB)    (FT/S)
DEVILS ISLAND    1300    9     290/  8/ 12 1026.5R
PORT WING        1300   -2     200/  8/ 10 1025.7
SAXON HARBOR     1300    5                 1024.7
$$

LMZ867-665-643>646-111500-
LAKE MICHIGAN

STATION/POSITION TIME  TEMP    WIND        PRES    WAVE
                       AIR SEA DIR/SP/G            HT/PER
                 (UTC) (F)     (DEG/KT/KT) (MB)    (FT/S)
CHAMBERS ISLAND  1300    8     300/  9/ 14 1023.4
ALGOMA LAKESHORE 1341          310/  5/ 10   N/A
KEWAUNEE LAKESHO 1400    3     300/  9/ 14 1023.2R
SHEBOYGAN LAKESH 1300    4     290/ 11/ 12 1026.5R
PORT WASHINGTON  1340    5     300/  8/ 13 1026.1R
MILWAUKEE LAKESH 1310    7     310/ 11/ 15   N/A
KENOSHA   LAKESH 1300    7     310/ 12/ 16 1024.7R
$$

TC  - TEMPERATURE IN CELSIUS
VSB - VISIBILITY IN STATUTE MILES
WCI - WIND CHILL INDEX
HX  - HEAT INDEX




USA.gov is the U.S. government's official web portal to all federal, state and local government web resources and services.